• în Republica Moldova
  • Lista ţărilor
  • Pe 7 zile
  • Temperatura apei
  • Hartă satelitară
  • Meteo pe hartă
  • Widget-uri
  • user-avatar
    Intrare

    Meteo pe oră la Lenkoran

    Astăzi, 22 Septembrie, Vineri

    Timp Temperatura Precipitaţii Vânt Presiune Umiditate
    00:00 +17°C° 0 mm 2 m/s 635 mmHg 53%
    01:00 +16°C° 0 mm 2 m/s 635 mmHg 52%
    02:00 +16°C° 0 mm 1 m/s 635 mmHg 51%
    03:00 +16°C° 0 mm 1 m/s 634 mmHg 50%
    04:00 +16°C° 0 mm 1 m/s 634 mmHg 50%
    05:00 +16°C° 0 mm 1 m/s 634 mmHg 49%
    06:00 +16°C° 0 mm 1 m/s 634 mmHg 48%
    07:00 +19°C° 0 mm 1 m/s 635 mmHg 42%
    08:00 +21°C° 0 mm 2 m/s 636 mmHg 36%
    09:00 +24°C° 0 mm 2 m/s 636 mmHg 30%
    10:00 +25°C° 0 mm 2 m/s 636 mmHg 29%
    11:00 +26°C° 0 mm 2 m/s 636 mmHg 28%
    12:00 +27°C° 0 mm 3 m/s 636 mmHg 27%
    13:00 +27°C° 0 mm 3 m/s 636 mmHg 28%
    14:00 +27°C° 0 mm 3 m/s 635 mmHg 28%
    15:00 +27°C° 0 mm 3 m/s 635 mmHg 29%
    16:00 +25°C° 0 mm 3 m/s 635 mmHg 36%
    17:00 +23°C° 0 mm 2 m/s 634 mmHg 43%
    18:00 +20°C° 0 mm 2 m/s 634 mmHg 50%
    19:00 +19°C° 0 mm 2 m/s 634 mmHg 53%
    20:00 +19°C° 0 mm 2 m/s 634 mmHg 56%
    21:00 +19°C° 0 mm 1 m/s 634 mmHg 59%
    22:00 +19°C° 0 mm 1 m/s 634 mmHg 59%
    23:00 +19°C° 0 mm 1 m/s 634 mmHg 59%

    Mâine, 23 Septembrie, Sâmbătă

    Timp Temperatura Precipitaţii Vânt Presiune Umiditate
    00:00 +19°C° 0 mm 1 m/s 634 mmHg 59%
    01:00 +18°C° 0 mm 1 m/s 634 mmHg 60%
    02:00 +18°C° 0 mm 1 m/s 634 mmHg 62%
    03:00 +18°C° 0 mm 1 m/s 634 mmHg 64%
    04:00 +16°C° 0 mm 1 m/s 634 mmHg 68%
    05:00 +16°C° 0 mm 1 m/s 635 mmHg 72%
    06:00 +15°C° 0 mm 1 m/s 635 mmHg 76%
    07:00 +18°C° 0 mm 1 m/s 636 mmHg 69%
    08:00 +19°C° 0 mm 2 m/s 636 mmHg 63%
    09:00 +21°C° 0 mm 2 m/s 637 mmHg 56%
    10:00 +23°C° 0,1 mm 2 m/s 637 mmHg 51%
    11:00 +24°C° 0,1 mm 3 m/s 637 mmHg 47%
    12:00 +25°C° 0,1 mm 3 m/s 638 mmHg 42%
    13:00 +25°C° 0,2 mm 3 m/s 637 mmHg 41%
    14:00 +25°C° 0,2 mm 3 m/s 637 mmHg 40%
    15:00 +25°C° 0,2 mm 3 m/s 637 mmHg 39%
    16:00 +22°C° 0,1 mm 3 m/s 636 mmHg 46%
    17:00 +20°C° 0,1 mm 3 m/s 636 mmHg 53%
    18:00 +17°C° 0,1 mm 2 m/s 635 mmHg 60%
    19:00 +17°C° 0 mm 2 m/s 636 mmHg 63%
    20:00 +16°C° 0 mm 2 m/s 636 mmHg 66%
    21:00 +15°C° 0 mm 2 m/s 636 mmHg 69%
    22:00 +15°C° 0 mm 2 m/s 636 mmHg 67%
    23:00 +15°C° 0 mm 2 m/s 636 mmHg 66%

    Poimâine, 24 Septembrie, Duminică

    Timp Temperatura Precipitaţii Vânt Presiune Umiditate
    00:00 +14°C° 0 mm 2 m/s 636 mmHg 64%
    01:00 +14°C° 0 mm 2 m/s 636 mmHg 63%
    02:00 +14°C° 0 mm 2 m/s 636 mmHg 63%
    03:00 +13°C° 0 mm 2 m/s 636 mmHg 62%
    04:00 +13°C° 0 mm 2 m/s 636 mmHg 67%
    05:00 +13°C° 0 mm 2 m/s 636 mmHg 73%
    06:00 +13°C° 0 mm 2 m/s 636 mmHg 78%
    07:00 +15°C° 0,1 mm 2 m/s 637 mmHg 76%
    08:00 +16°C° 0,1 mm 3 m/s 638 mmHg 75%
    09:00 +17°C° 0,1 mm 3 m/s 638 mmHg 73%
    10:00 +18°C° 0,1 mm 3 m/s 638 mmHg 70%
    11:00 +19°C° 0,1 mm 3 m/s 638 mmHg 67%
    12:00 +19°C° 0,1 mm 3 m/s 638 mmHg 65%
    13:00 +20°C° 0 mm 3 m/s 638 mmHg 63%
    14:00 +20°C° 0 mm 4 m/s 638 mmHg 62%
    15:00 +20°C° 0 mm 4 m/s 638 mmHg 60%
    16:00 +19°C° 0 mm 3 m/s 638 mmHg 68%
    17:00 +18°C° 0 mm 3 m/s 637 mmHg 75%
    18:00 +16°C° 0 mm 3 m/s 637 mmHg 83%
    19:00 +16°C° 0 mm 2 m/s 637 mmHg 85%
    20:00 +15°C° 0 mm 2 m/s 638 mmHg 87%
    21:00 +15°C° 0 mm 2 m/s 638 mmHg 89%
    22:00 +15°C° 0 mm 2 m/s 638 mmHg 89%
    23:00 +14°C° 0 mm 1 m/s 638 mmHg 89%

    25 Septembrie, Luni

    Timp Temperatura Precipitaţii Vânt Presiune Umiditate
    00:00 +14°C° 0 mm 1 m/s 637 mmHg 89%
    01:00 +14°C° 0 mm 1 m/s 637 mmHg 90%
    02:00 +13°C° 0 mm 1 m/s 637 mmHg 90%
    03:00 +13°C° 0 mm 1 m/s 637 mmHg 91%
    04:00 +13°C° 0 mm 1 m/s 637 mmHg 91%
    05:00 +13°C° 0 mm 1 m/s 637 mmHg 91%
    06:00 +13°C° 0 mm 2 m/s 637 mmHg 91%
    07:00 +14°C° 0 mm 2 m/s 638 mmHg 84%
    08:00 +15°C° 0 mm 2 m/s 638 mmHg 78%
    09:00 +16°C° 0 mm 3 m/s 639 mmHg 71%
    10:00 +17°C° 0 mm 3 m/s 639 mmHg 67%
    11:00 +18°C° 0 mm 3 m/s 639 mmHg 63%
    12:00 +19°C° 0 mm 3 m/s 639 mmHg 59%
    13:00 +19°C° 0 mm 3 m/s 638 mmHg 60%
    14:00 +19°C° 0 mm 3 m/s 638 mmHg 61%
    15:00 +19°C° 0 mm 3 m/s 638 mmHg 62%
    16:00 +18°C° 0 mm 3 m/s 638 mmHg 69%
    17:00 +16°C° 0 mm 3 m/s 638 mmHg 75%
    18:00 +14°C° 0 mm 3 m/s 638 mmHg 82%
    19:00 +14°C° 0 mm 3 m/s 638 mmHg 83%
    20:00 +13°C° 0 mm 3 m/s 638 mmHg 84%
    21:00 +13°C° 0 mm 3 m/s 638 mmHg 85%
    22:00 +13°C° 0 mm 3 m/s 638 mmHg 85%
    23:00 +12°C° 0 mm 3 m/s 638 mmHg 85%

    26 Septembrie, Marţi

    Timp Temperatura Precipitaţii Vânt Presiune Umiditate
    00:00 +12°C° 0 mm 3 m/s 638 mmHg 85%
    01:00 +12°C° 0 mm 3 m/s 638 mmHg 86%
    02:00 +11°C° 0 mm 3 m/s 638 mmHg 87%
    03:00 +11°C° 0 mm 3 m/s 637 mmHg 88%
    04:00 +11°C° 0 mm 3 m/s 638 mmHg 88%
    05:00 +11°C° 0 mm 3 m/s 638 mmHg 88%
    06:00 +11°C° 0 mm 3 m/s 638 mmHg 89%
    07:00 +12°C° 0,1 mm 3 m/s 638 mmHg 83%
    08:00 +13°C° 0,1 mm 3 m/s 639 mmHg 78%
    09:00 +14°C° 0,1 mm 3 m/s 639 mmHg 73%
    10:00 +16°C° 0,1 mm 3 m/s 639 mmHg 71%
    11:00 +16°C° 0,1 mm 3 m/s 639 mmHg 69%
    12:00 +17°C° 0,1 mm 3 m/s 639 mmHg 67%
    13:00 +17°C° 0,1 mm 4 m/s 638 mmHg 68%
    14:00 +17°C° 0,1 mm 4 m/s 638 mmHg 69%
    15:00 +17°C° 0,1 mm 4 m/s 638 mmHg 71%
    16:00 +15°C° 0 mm 4 m/s 638 mmHg 75%
    17:00 +14°C° 0 mm 3 m/s 638 mmHg 80%
    18:00 +13°C° 0 mm 3 m/s 638 mmHg 84%
    19:00 +13°C° 0,1 mm 3 m/s 638 mmHg 85%
    20:00 +13°C° 0,1 mm 3 m/s 638 mmHg 86%
    21:00 +12°C° 0,1 mm 3 m/s 638 mmHg 87%
    22:00 +13°C° 0,1 mm 2 m/s 638 mmHg 87%
    23:00 +13°C° 0,1 mm 2 m/s 637 mmHg 88%

    27 Septembrie, Miercuri

    Timp Temperatura Precipitaţii Vânt Presiune Umiditate
    00:00 +13°C° 0,1 mm 2 m/s 637 mmHg 89%
    01:00 +13°C° 0 mm 2 m/s 637 mmHg 90%
    02:00 +12°C° 0 mm 2 m/s 637 mmHg 90%
    03:00 +12°C° 0 mm 2 m/s 636 mmHg 90%
    04:00 +12°C° 0 mm 1 m/s 637 mmHg 90%
    05:00 +12°C° 0 mm 1 m/s 637 mmHg 90%
    06:00 +12°C° 0 mm 1 m/s 637 mmHg 90%
    07:00 +14°C° 0,1 mm 2 m/s 637 mmHg 82%
    08:00 +15°C° 0,1 mm 2 m/s 637 mmHg 74%
    09:00 +17°C° 0,1 mm 2 m/s 638 mmHg 65%
    10:00 +18°C° 0,1 mm 3 m/s 638 mmHg 63%
    11:00 +19°C° 0,1 mm 3 m/s 637 mmHg 61%
    12:00 +20°C° 0,1 mm 3 m/s 637 mmHg 58%
    13:00 +20°C° 0,1 mm 4 m/s 637 mmHg 59%
    14:00 +20°C° 0,1 mm 4 m/s 636 mmHg 60%
    15:00 +20°C° 0,1 mm 4 m/s 636 mmHg 61%
    16:00 +19°C° 0,1 mm 4 m/s 636 mmHg 68%
    17:00 +18°C° 0,1 mm 4 m/s 636 mmHg 75%
    18:00 +16°C° 0,1 mm 3 m/s 635 mmHg 82%
    19:00 +16°C° 0,2 mm 3 m/s 636 mmHg 85%
    20:00 +16°C° 0,2 mm 3 m/s 636 mmHg 87%
    21:00 +14°C° 0,2 mm 3 m/s 636 mmHg 89%
    22:00 +14°C° 0,2 mm 3 m/s 636 mmHg 89%
    23:00 +14°C° 0,2 mm 3 m/s 636 mmHg 89%
    Arată mai mult